COSMOS 968

导读 | 星芒AI

COSMOS 968 是苏联于1977年12月12日发射的一颗军用侦察卫星,属于“宇宙”卫星系列。该卫星主要用于电子情报收集和监视任务,具体任务细节未公开。卫星由普列谢茨克航天发射场发射,搭载于SS-19洲际弹道导弹发射平台上。COSMOS 968 在轨运行一段时间后失联,最终坠入地球大气层销毁。该卫星反映了冷战时期苏联在空间侦察和电子战方面的能力。

基本信息
目录编号:
10520
目录名称:
COSMOS 968
国际标识:
1977-119A
轨道中心:
EARTH
卫星名称:
COSMOS 968
卫星全名:
--
卫星状态:
在轨 (已飞行17531 天)
发射日期:
1977-12-16 UTC
国别 :
俄罗斯(独联体) (CIS)
星等 :
--
轨道信息
数据来源 国际轨道数据
星历时间: 2025-12-15T04:03:27+0800
22小时前
查看轨道信息
半长轴: 7146.496km
偏心率: 0.0016985
轨道倾角: 74.029°
近地点辐角 33.372°
升交点赤经 117.512°
平近点角 326.850°
近地点: 756.222km
远地点: 780.5km
周期: 100.207分钟
每日圈数: 14.37021
详细信息
使用方式:
暂无
2D轨道图
3D轨道图
轨道高度分析图
轨道倾角分析图
轨道综合分析图
查看轨道综合分析图